Location: Cahas Mountain Overlook
(37.0833°N, 80.1000°W)
Time: 19:20:31
(UTC-04:00)

Tiros 1 - Pass Details

Date: 08 February 2026
Orbit: 618 x 649 km, 48.4° (Epoch: 13 March)

Event Time Altitude Azimuth Distance (km) Brightness Sun altitude
Rises 11:20:31 0° 214° (SW) 2,884 10.9 35.2°
Reaches altitude 10° 11:22:55 10° 207° (SSW) 1,977 10.3 35.4°
Maximum altitude 11:27:10 40° 137° (SE) 907 9.7 35.7°
Drops below altitude 10° 11:31:25 10° 68° (ENE) 1,977 9.7 36.0°
Sets 11:33:49 0° 61° (ENE) 2,884 10.4 36.1°
